| time (UTC) | temp F | wind direction | speed knots | gust knots | rain 1hr in | rain 24hr in | rain mn in | humidity % | barometer mb |
| 20260502210537 | 52 | 0 | 1.7 | 4.3 | 0.05 | 0.26 | 0.26 | 91 | 1012.2 |
| 20260502210059 | 52 | 52 | 0.9 | 4.3 | 0.05 | 0.26 | 0.26 | 91 | 1012.3 |
| 20260502205537 | 52 | 53 | 0.9 | 4.3 | 0.03 | 0.25 | 0.25 | 91 | 1012.4 |
| 20260502205041 | 52 | 54 | 0.9 | 2.6 | 0.03 | 0.25 | 0.25 | 91 | 1012.4 |
| 20260502204547 | 52 | 70 | 0.9 | 2.6 | 0.04 | 0.25 | 0.25 | 91 | 1012.5 |
| 20260502204037 | 52 | 0 | 0.0 | 5.2 | 0.02 | 0.22 | 0.22 | 90 | 1012.6 |
| 20260502203537 | 52 | 0 | 0.0 | 7.8 | 0.02 | 0.22 | 0.22 | 90 | 1012.4 |
| 20260502203052 | 52 | 58 | 1.7 | 7.8 | 0.02 | 0.22 | 0.22 | 90 | 1012.4 |
| 20260502202539 | 52 | 0 | 1.7 | 5.2 | 0.01 | 0.22 | 0.22 | 90 | 1012.5 |
| 20260502202040 | 52 | 0 | 1.7 | 4.3 | 0.01 | 0.22 | 0.22 | 90 | 1012.6 |
| 20260502201547 | 52 | 360 | 0.9 | 7.0 | 0.00 | 0.21 | 0.21 | 90 | 1012.6 |
| 20260502201037 | 52 | 329 | 1.7 | 7.0 | 0.00 | 0.21 | 0.21 | 90 | 1012.7 |
| 20260502200537 | 52 | 40 | 1.7 | 5.2 | 0.01 | 0.21 | 0.21 | 90 | 1012.6 |
| 20260502200051 | 53 | 5 | 1.7 | 6.1 | 0.01 | 0.21 | 0.21 | 90 | 1012.7 |
| 20260502195539 | 53 | 349 | 1.7 | 7.0 | 0.01 | 0.21 | 0.21 | 90 | 1012.7 |
| 20260502195040 | 53 | 5 | 1.7 | 7.0 | 0.02 | 0.21 | 0.21 | 89 | 1012.8 |
| 20260502194549 | 53 | 344 | 0.0 | 4.3 | 0.02 | 0.20 | 0.20 | 89 | 1012.8 |
| 20260502194037 | 53 | 20 | 1.7 | 5.2 | 0.03 | 0.20 | 0.20 | 89 | 1012.8 |
| 20260502193539 | 53 | 346 | 2.6 | 5.2 | 0.04 | 0.20 | 0.20 | 89 | 1012.8 |
| 20260502193051 | 53 | 340 | 1.7 | 5.2 | 0.05 | 0.20 | 0.20 | 89 | 1012.8 |
| 20260502192541 | 54 | 13 | 1.7 | 5.2 | 0.07 | 0.20 | 0.20 | 89 | 1012.9 |
| 20260502192037 | 54 | 352 | 1.7 | 4.3 | 0.07 | 0.20 | 0.20 | 89 | 1012.9 |
| 20260502191550 | 54 | 344 | 0.9 | 3.5 | 0.10 | 0.20 | 0.20 | 88 | 1013.0 |
| 20260502191037 | 54 | 0 | 0.0 | 3.5 | 0.12 | 0.20 | 0.20 | 88 | 1013.1 |
| 20260502190537 | 54 | 348 | 0.0 | 4.3 | 0.14 | 0.19 | 0.19 | 88 | 1013.2 |
| 20260502190058 | 54 | 0 | 1.7 | 4.3 | 0.15 | 0.19 | 0.19 | 87 | 1013.2 |
| 20260502185536 | 54 | 0 | 0.0 | 3.5 | 0.17 | 0.18 | 0.18 | 87 | 1013.4 |
| 20260502185040 | 54 | 315 | 0.9 | 3.5 | 0.17 | 0.18 | 0.18 | 86 | 1013.5 |
| 20260502184557 | 55 | 285 | 0.0 | 2.6 | 0.17 | 0.18 | 0.18 | 85 | 1013.7 |
| 20260502184037 | 55 | 280 | 0.0 | 2.6 | 0.17 | 0.17 | 0.17 | 85 | 1013.7 |
| 20260502183537 | 55 | 0 | 0.9 | 2.6 | 0.15 | 0.15 | 0.15 | 84 | 1013.8 |
| 20260502183050 | 56 | 0 | 0.0 | 3.5 | 0.14 | 0.14 | 0.14 | 83 | 1013.9 |
| 20260502182536 | 56 | 0 | 0.9 | 3.5 | 0.13 | 0.13 | 0.13 | 82 | 1013.9 |
| 20260502182037 | 57 | 291 | 0.0 | 2.6 | 0.11 | 0.11 | 0.11 | 80 | 1014.0 |
| 20260502181552 | 58 | 0 | 0.0 | 2.6 | 0.09 | 0.09 | 0.09 | 79 | 1014.0 |
| 20260502181037 | 58 | 188 | 0.0 | 1.7 | 0.07 | 0.07 | 0.07 | 78 | 1013.9 |
| 20260502180538 | 59 | 176 | 0.9 | 1.7 | 0.05 | 0.05 | 0.05 | 77 | 1013.9 |
| 20260502180113 | 59 | 101 | 0.0 | 0.9 | 0.03 | 0.03 | 0.03 | 73 | 1013.8 |
| 20260502164037 | 62 | 11 | 0.0 | 2.6 | 0.00 | 0.00 | 0.00 | 61 | 1013.7 |
| 20260502163537 | 62 | 19 | 0.0 | 2.6 | 0.00 | 0.00 | 0.00 | 65 | 1013.7 |
| 20260502163051 | 62 | 0 | 0.0 | 0.9 | 0.00 | 0.00 | 0.00 | 64 | 1013.8 |
| 20260502162539 | 62 | 0 | 0.0 | 1.7 | 0.00 | 0.00 | 0.00 | 64 | 1013.8 |
| 20260502162036 | 62 | 0 | 0.0 | 2.6 | 0.00 | 0.00 | 0.00 | 62 | 1013.9 |
| 20260502161559 | 62 | 0 | 0.0 | 2.6 | 0.00 | 0.00 | 0.00 | 63 | 1013.9 |
| 20260502161037 | 62 | 0 | 0.9 | 2.6 | 0.00 | 0.00 | 0.00 | 66 | 1014.0 |
| 20260502160537 | 62 | 0 | 0.0 | 2.6 | 0.00 | 0.00 | 0.00 | 65 | 1014.1 |
| 20260502152040 | 62 | 0 | 0.9 | 4.3 | 0.00 | 0.00 | 0.00 | 65 | 1014.8 |
| 20260502151600 | 62 | 139 | 0.0 | 3.5 | 0.00 | 0.00 | 0.00 | 63 | 1014.7 |
| 20260502151037 | 62 | 0 | 0.9 | 3.5 | 0.00 | 0.00 | 0.00 | 63 | 1014.9 |
| 20260502150621 | 62 | 0 | 0.0 | 4.3 | 0.00 | 0.00 | 0.00 | 64 | 1015.1 |
| 20260502130539 | 65 | 0 | 0.9 | 7.0 | 0.00 | 0.00 | 0.00 | 58 | 1016.5 |
| 20260502123535 | 65 | 215 | 0.9 | 7.8 | 0.00 | 0.00 | 0.00 | 56 | 1016.6 |
| 20260502123047 | 65 | 302 | 2.6 | 7.8 | 0.00 | 0.00 | 0.00 | 59 | 1016.7 |
| 20260502122536 | 65 | 202 | 0.9 | 7.8 | 0.00 | 0.00 | 0.00 | 59 | 1016.7 |
| 20260502122036 | 65 | 159 | 1.7 | 8.7 | 0.00 | 0.00 | 0.00 | 59 | 1016.7 |
| 20260502121601 | 64 | 0 | 2.6 | 9.6 | 0.00 | 0.00 | 0.00 | 59 | 1016.9 |
| 20260502121042 | 64 | 186 | 6.1 | 9.6 | 0.00 | 0.00 | 0.00 | 61 | 1016.9 |
| 20260502120537 | 65 | 162 | 2.6 | 7.8 | 0.00 | 0.00 | 0.00 | 59 | 1017.1 |
| 20260502115541 | 64 | 160 | 0.0 | 7.0 | 0.00 | 0.00 | 0.00 | 59 | 1017.2 |
| 20260502115038 | 64 | 123 | 2.6 | 7.8 | 0.00 | 0.00 | 0.00 | 60 | 1017.2 |
| 20260502114553 | 65 | 157 | 3.5 | 7.8 | 0.00 | 0.00 | 0.00 | 59 | 1017.2 |
| 20260502114037 | 66 | 165 | 0.9 | 9.6 | 0.00 | 0.00 | 0.00 | 55 | 1017.2 |
| 20260502113538 | 67 | 305 | 1.7 | 9.6 | 0.00 | 0.00 | 0.00 | 55 | 1017.3 |
| 20260502113055 | 66 | 0 | 0.9 | 6.1 | 0.00 | 0.00 | 0.00 | 58 | 1017.3 |
| 20260502112537 | 66 | 179 | 1.7 | 7.0 | 0.00 | 0.00 | 0.00 | 59 | 1017.4 |
| 20260502112037 | 67 | 217 | 1.7 | 7.8 | 0.00 | 0.00 | 0.00 | 59 | 1017.5 |
| 20260502111558 | 67 | 190 | 0.9 | 7.8 | 0.00 | 0.00 | 0.00 | 59 | 1017.6 |
| 20260502111039 | 67 | 0 | 2.6 | 7.0 | 0.00 | 0.00 | 0.00 | 56 | 1017.7 |
| 20260502110538 | 67 | 269 | 0.9 | 9.6 | 0.00 | 0.00 | 0.00 | 57 | 1017.8 |
| 20260502110051 | 66 | 179 | 2.6 | 9.6 | 0.00 | 0.00 | 0.00 | 57 | 1017.9 |
| 20260502105540 | 66 | 0 | 2.6 | 11.3 | 0.00 | 0.00 | 0.00 | 59 | 1017.9 |
| 20260502105036 | 66 | 223 | 2.6 | 11.3 | 0.00 | 0.00 | 0.00 | 60 | 1018.0 |
| 20260502104547 | 66 | 336 | 2.6 | 8.7 | 0.00 | 0.00 | 0.00 | 62 | 1018.0 |
| 20260502104039 | 64 | 288 | 0.9 | 7.8 | 0.00 | 0.00 | 0.00 | 61 | 1018.1 |
| 20260502103538 | 65 | 0 | 2.6 | 7.8 | 0.00 | 0.00 | 0.00 | 62 | 1018.0 |
| 20260502103053 | 65 | 0 | 1.7 | 8.7 | 0.00 | 0.00 | 0.00 | 62 | 1017.9 |
| 20260502102538 | 64 | 121 | 2.6 | 8.7 | 0.00 | 0.00 | 0.00 | 61 | 1018.0 |
| 20260502102038 | 61 | 300 | 0.9 | 8.7 | 0.00 | 0.00 | 0.00 | 67 | 1017.8 |
| 20260502101616 | 62 | 288 | 1.7 | 8.7 | 0.00 | 0.00 | 0.00 | 63 | 1018.0 |
| 20260502101037 | 64 | 113 | 0.0 | 8.7 | 0.00 | 0.00 | 0.00 | 64 | 1018.0 |
| 20260502100537 | 65 | 304 | 1.7 | 7.8 | 0.00 | 0.00 | 0.00 | 59 | 1018.1 |
| 20260502091037 | 64 | 171 | 3.5 | 8.7 | 0.00 | 0.00 | 0.00 | 66 | 1018.7 |
| 20260502090537 | 63 | 257 | 0.9 | 5.2 | 0.00 | 0.00 | 0.00 | 64 | 1018.9 |
| 20260502080103 | 59 | 178 | 0.0 | 4.3 | 0.00 | 0.00 | 0.00 | 72 | 1018.9 |
| 20260502071038 | 52 | 231 | 0.9 | 6.1 | 0.00 | 0.00 | 0.00 | 88 | 1018.9 |
| 20260502070538 | 51 | 0 | 0.9 | 6.1 | 0.00 | 0.00 | 0.00 | 88 | 1018.9 |
| 20260502070050 | 51 | 263 | 1.7 | 6.1 | 0.00 | 0.00 | 0.00 | 88 | 1019.0 |
| 20260502065538 | 51 | 298 | 0.9 | 5.2 | 0.00 | 0.00 | 0.00 | 89 | 1018.9 |
| 20260502065038 | 51 | 267 | 0.9 | 5.2 | 0.00 | 0.00 | 0.00 | 90 | 1019.0 |
| 20260502064559 | 50 | 264 | 0.9 | 5.2 | 0.00 | 0.00 | 0.00 | 91 | 1018.9 |
| 20260502064038 | 50 | 0 | 0.0 | 3.5 | 0.00 | 0.00 | 0.00 | 91 | 1019.1 |
| 20260502063537 | 49 | 0 | 0.0 | 3.5 | 0.00 | 0.00 | 0.00 | 91 | 1019.0 |
| 20260502063054 | 49 | 0 | 0.9 | 2.6 | 0.00 | 0.00 | 0.00 | 91 | 1018.9 |
| 20260502062537 | 49 | 0 | 0.9 | 3.5 | 0.00 | 0.00 | 0.00 | 91 | 1018.9 |
| 20260502062038 | 49 | 262 | 0.0 | 3.5 | 0.00 | 0.00 | 0.00 | 91 | 1018.9 |
| 20260502061551 | 48 | 0 | 0.9 | 3.5 | 0.00 | 0.00 | 0.00 | 91 | 1018.8 |
| 20260502061038 | 48 | 0 | 0.9 | 2.6 | 0.00 | 0.00 | 0.00 | 92 | 1018.9 |
| 20260502060537 | 48 | 0 | 0.0 | 2.6 | 0.00 | 0.00 | 0.00 | 92 | 1018.7 |
| 20260502060107 | 48 | 283 | 0.0 | 2.6 | 0.00 | 0.00 | 0.00 | 91 | 1018.6 |
| 20260502055537 | 48 | 0 | 0.0 | 2.6 | 0.00 | 0.00 | 0.00 | 92 | 1018.7 |
| 20260502055038 | 48 | 0 | 0.0 | 2.6 | 0.00 | 0.00 | 0.00 | 92 | 1018.7 |
| 20260502054553 | 47 | 0 | 0.0 | 3.5 | 0.00 | 0.00 | 0.00 | 92 | 1018.8 |
| 20260502054037 | 47 | 288 | 0.9 | 3.5 | 0.00 | 0.00 | 0.00 | 92 | 1018.7 |
| 20260502053537 | 47 | 0 | 0.9 | 3.5 | 0.00 | 0.00 | 0.00 | 92 | 1018.6 |
| 20260502053059 | 47 | 273 | 0.0 | 4.3 | 0.00 | 0.00 | 0.00 | 92 | 1018.7 |
| 20260502052537 | 47 | 267 | 0.0 | 5.2 | 0.00 | 0.00 | 0.00 | 92 | 1018.6 |
| 20260502052038 | 46 | 265 | 0.9 | 5.2 | 0.00 | 0.00 | 0.00 | 92 | 1018.7 |
| 20260502051558 | 46 | 0 | 0.0 | 3.5 | 0.00 | 0.00 | 0.00 | 91 | 1018.6 |
| 20260502051037 | 46 | 0 | 0.9 | 5.2 | 0.00 | 0.00 | 0.00 | 91 | 1018.6 |
| 20260502050540 | 46 | 285 | 0.9 | 5.2 | 0.00 | 0.00 | 0.00 | 91 | 1018.6 |
| 20260502050054 | 46 | 244 | 0.9 | 5.2 | 0.00 | 0.00 | 0.00 | 91 | 1018.6 |
| 20260502045539 | 45 | 269 | 1.7 | 5.2 | 0.00 | 0.00 | 0.00 | 91 | 1018.7 |
| 20260502045037 | 45 | 267 | 1.7 | 5.2 | 0.00 | 0.00 | 0.00 | 91 | 1018.8 |
| 20260502044549 | 45 | 286 | 0.9 | 3.5 | 0.00 | 0.00 | 0.00 | 91 | 1018.6 |
| 20260502044039 | 45 | 270 | 0.9 | 3.5 | 0.00 | 0.00 | 0.00 | 91 | 1018.6 |
| 20260502043537 | 45 | 289 | 0.9 | 3.5 | 0.00 | 0.00 | 0.00 | 90 | 1018.6 |
| 20260502043050 | 45 | 246 | 0.9 | 2.6 | 0.00 | 0.00 | 0.00 | 90 | 1018.7 |
| 20260502042542 | 45 | 0 | 0.0 | 2.6 | 0.00 | 0.00 | 0.00 | 90 | 1018.6 |
| 20260502042038 | 45 | 277 | 0.9 | 2.6 | 0.00 | 0.00 | 0.00 | 90 | 1018.7 |
| 20260502041543 | 45 | 268 | 0.9 | 3.5 | 0.00 | 0.00 | 0.00 | 90 | 1018.7 |
| 20260502041037 | 45 | 0 | 0.0 | 3.5 | 0.00 | 0.00 | 0.00 | 90 | 1018.8 |
| 20260502040537 | 46 | 337 | 0.9 | 3.5 | 0.00 | 0.00 | 0.00 | 90 | 1018.9 |
| 20260502040048 | 45 | 279 | 0.0 | 2.6 | 0.00 | 0.00 | 0.00 | 90 | 1018.9 |
| 20260502035537 | 46 | 275 | 0.9 | 2.6 | 0.00 | 0.00 | 0.00 | 89 | 1018.9 |
| 20260502035037 | 46 | 288 | 0.0 | 2.6 | 0.00 | 0.00 | 0.00 | 89 | 1018.9 |
| 20260502034551 | 46 | 289 | 0.9 | 2.6 | 0.00 | 0.00 | 0.00 | 89 | 1019.0 |
| 20260502034037 | 46 | 275 | 0.9 | 2.6 | 0.00 | 0.00 | 0.00 | 89 | 1019.0 |
| 20260502033536 | 46 | 288 | 0.9 | 2.6 | 0.00 | 0.00 | 0.00 | 89 | 1018.9 |
| 20260502033053 | 46 | 0 | 0.0 | 1.7 | 0.00 | 0.00 | 0.00 | 89 | 1019.0 |
| 20260502032536 | 46 | 0 | 0.0 | 1.7 | 0.00 | 0.00 | 0.00 | 89 | 1019.0 |
| 20260502032038 | 46 | 279 | 0.0 | 1.7 | 0.00 | 0.00 | 0.00 | 88 | 1019.0 |
| 20260502031548 | 46 | 279 | 0.0 | 1.7 | 0.00 | 0.00 | 0.00 | 88 | 1019.0 |
| 20260502031037 | 47 | 0 | 0.9 | 1.7 | 0.00 | 0.00 | 0.00 | 88 | 1019.1 |
| 20260502030537 | 47 | 0 | 0.0 | 1.7 | 0.00 | 0.00 | 0.00 | 88 | 1019.1 |
| 20260502030054 | 47 | 0 | 0.0 | 1.7 | 0.00 | 0.00 | 0.00 | 88 | 1019.1 |
| 20260502025537 | 47 | 0 | 0.0 | 1.7 | 0.00 | 0.00 | 0.00 | 87 | 1019.1 |
| 20260502025037 | 47 | 275 | 0.0 | 1.7 | 0.00 | 0.00 | 0.00 | 88 | 1019.0 |
| 20260502024547 | 47 | 273 | 0.0 | 1.7 | 0.00 | 0.00 | 0.00 | 87 | 1018.9 |
| 20260502024037 | 47 | 271 | 0.0 | 1.7 | 0.00 | 0.00 | 0.00 | 87 | 1019.0 |
| 20260502023537 | 47 | 0 | 0.0 | 1.7 | 0.00 | 0.00 | 0.00 | 87 | 1019.0 |
| 20260502023051 | 47 | 271 | 0.0 | 2.6 | 0.00 | 0.00 | 0.00 | 87 | 1019.1 |
| 20260502022539 | 48 | 0 | 0.0 | 2.6 | 0.00 | 0.00 | 0.00 | 86 | 1019.2 |
| 20260502022038 | 48 | 267 | 0.9 | 4.3 | 0.00 | 0.00 | 0.00 | 86 | 1019.3 |
| 20260502021552 | 48 | 273 | 0.9 | 5.2 | 0.00 | 0.00 | 0.00 | 86 | 1019.3 |
| 20260502021037 | 48 | 274 | 1.7 | 5.2 | 0.00 | 0.00 | 0.00 | 85 | 1019.3 |
| 20260502020539 | 48 | 268 | 0.9 | 5.2 | 0.00 | 0.00 | 0.00 | 85 | 1019.3 |
| 20260502020047 | 49 | 291 | 0.9 | 5.2 | 0.00 | 0.00 | 0.00 | 85 | 1019.4 |
| 20260502015538 | 49 | 248 | 0.0 | 7.8 | 0.00 | 0.00 | 0.00 | 85 | 1019.4 |
| 20260502015037 | 49 | 261 | 2.6 | 7.8 | 0.00 | 0.00 | 0.00 | 85 | 1019.4 |
| 20260502014555 | 49 | 306 | 3.5 | 7.8 | 0.00 | 0.00 | 0.00 | 85 | 1019.4 |
| 20260502014037 | 49 | 287 | 2.6 | 7.8 | 0.00 | 0.00 | 0.00 | 85 | 1019.5 |
| 20260502013537 | 49 | 281 | 2.6 | 7.8 | 0.00 | 0.00 | 0.00 | 85 | 1019.6 |
| 20260502013055 | 49 | 294 | 2.6 | 7.8 | 0.00 | 0.00 | 0.00 | 85 | 1019.6 |
| 20260502012537 | 49 | 296 | 3.5 | 7.8 | 0.00 | 0.00 | 0.00 | 85 | 1019.7 |
| 20260502012037 | 50 | 284 | 3.5 | 8.7 | 0.00 | 0.00 | 0.00 | 85 | 1019.7 |
| 20260502011605 | 50 | 250 | 3.5 | 8.7 | 0.00 | 0.00 | 0.00 | 85 | 1019.7 |
| 20260502011036 | 50 | 284 | 3.5 | 8.7 | 0.00 | 0.00 | 0.00 | 85 | 1019.8 |
| 20260502010536 | 50 | 312 | 3.5 | 7.8 | 0.00 | 0.00 | 0.00 | 85 | 1019.9 |
| 20260502010048 | 50 | 261 | 2.6 | 7.8 | 0.00 | 0.00 | 0.00 | 85 | 1019.9 |
| 20260502005536 | 50 | 263 | 2.6 | 7.8 | 0.00 | 0.00 | 0.00 | 85 | 1020.0 |
| 20260502005036 | 50 | 288 | 3.5 | 7.8 | 0.00 | 0.00 | 0.00 | 85 | 1020.0 |
| 20260502004558 | 50 | 176 | 3.5 | 8.7 | 0.00 | 0.00 | 0.00 | 85 | 1020.0 |
| 20260502004037 | 50 | 271 | 1.7 | 8.7 | 0.00 | 0.00 | 0.00 | 85 | 1020.0 |
| 20260502003537 | 50 | 296 | 3.5 | 7.8 | 0.00 | 0.00 | 0.00 | 85 | 1019.9 |
| 20260502003047 | 50 | 281 | 2.6 | 7.0 | 0.00 | 0.00 | 0.00 | 86 | 1020.1 |
| 20260502002537 | 50 | 309 | 3.5 | 7.8 | 0.00 | 0.00 | 0.00 | 85 | 1020.2 |
| 20260502002039 | 50 | 323 | 2.6 | 8.7 | 0.00 | 0.00 | 0.00 | 85 | 1020.2 |
| 20260502001550 | 50 | 267 | 3.5 | 8.7 | 0.00 | 0.00 | 0.00 | 85 | 1020.2 |
| 20260502001036 | 50 | 261 | 2.6 | 7.8 | 0.00 | 0.00 | 0.00 | 85 | 1020.1 |
| 20260502000536 | 50 | 288 | 1.7 | 7.8 | 0.00 | 0.00 | 0.00 | 85 | 1020.2 |
| 20260502000100 | 50 | 290 | 2.6 | 7.8 | 0.00 | 0.00 | 0.00 | 85 | 1020.2 |
| 20260501235536 | 50 | 269 | 3.5 | 7.8 | 0.00 | 0.00 | 0.00 | 85 | 1020.1 |
| 20260501235039 | 51 | 0 | 1.7 | 8.7 | 0.00 | 0.00 | 0.00 | 84 | 1020.3 |
| 20260501234551 | 51 | 259 | 2.6 | 8.7 | 0.00 | 0.00 | 0.00 | 84 | 1020.3 |
| 20260501234037 | 51 | 275 | 1.7 | 7.0 | 0.00 | 0.00 | 0.00 | 84 | 1020.3 |
| 20260501233536 | 51 | 225 | 1.7 | 6.1 | 0.00 | 0.00 | 0.00 | 84 | 1020.3 |
| 20260501233048 | 51 | 265 | 1.7 | 6.1 | 0.00 | 0.00 | 0.00 | 83 | 1020.3 |
| 20260501232536 | 51 | 245 | 0.9 | 5.2 | 0.00 | 0.00 | 0.00 | 83 | 1020.4 |
| 20260501232036 | 52 | 265 | 1.7 | 7.0 | 0.00 | 0.00 | 0.00 | 83 | 1020.3 |
| 20260501231552 | 52 | 247 | 1.7 | 7.0 | 0.00 | 0.00 | 0.00 | 83 | 1020.3 |
| 20260501231037 | 52 | 200 | 1.7 | 8.7 | 0.00 | 0.00 | 0.00 | 82 | 1020.3 |
| 20260501230537 | 52 | 246 | 2.6 | 8.7 | 0.00 | 0.00 | 0.00 | 82 | 1020.3 |
| 20260501230046 | 53 | 300 | 2.6 | 8.7 | 0.00 | 0.00 | 0.00 | 82 | 1020.3 |
| 20260501225540 | 53 | 273 | 1.7 | 8.7 | 0.00 | 0.00 | 0.00 | 82 | 1020.4 |
| 20260501225037 | 53 | 337 | 4.3 | 8.7 | 0.00 | 0.00 | 0.00 | 82 | 1020.4 |
| 20260501224552 | 53 | 250 | 2.6 | 8.7 | 0.00 | 0.00 | 0.00 | 82 | 1020.4 |
| 20260501224036 | 54 | 270 | 3.5 | 8.7 | 0.00 | 0.00 | 0.00 | 82 | 1020.4 |
| 20260501223538 | 54 | 279 | 3.5 | 8.7 | 0.00 | 0.00 | 0.00 | 83 | 1020.3 |
| 20260501223050 | 54 | 282 | 3.5 | 7.0 | 0.00 | 0.00 | 0.00 | 84 | 1020.3 |
| 20260501222537 | 54 | 288 | 2.6 | 8.7 | 0.00 | 0.00 | 0.00 | 84 | 1020.2 |
| 20260501222037 | 54 | 281 | 2.6 | 8.7 | 0.00 | 0.00 | 0.00 | 85 | 1020.3 |
| 20260501221607 | 54 | 229 | 2.6 | 6.1 | 0.00 | 0.00 | 0.00 | 85 | 1020.3 |
| 20260501221040 | 54 | 274 | 1.7 | 6.1 | 0.00 | 0.00 | 0.00 | 86 | 1020.3 |
| 20260501220536 | 54 | 243 | 0.9 | 7.0 | 0.00 | 0.00 | 0.00 | 86 | 1020.3 |
| 20260501220053 | 54 | 261 | 1.7 | 8.7 | 0.00 | 0.00 | 0.00 | 86 | 1020.2 |
| 20260501215538 | 54 | 268 | 2.6 | 8.7 | 0.00 | 0.00 | 0.00 | 86 | 1020.3 |
| 20260501215036 | 54 | 182 | 4.3 | 11.3 | 0.00 | 0.00 | 0.00 | 86 | 1020.2 |
| 20260501214547 | 54 | 269 | 2.6 | 11.3 | 0.00 | 0.00 | 0.00 | 86 | 1020.3 |
| 20260501214037 | 54 | 216 | 3.5 | 9.6 | 0.00 | 0.00 | 0.00 | 86 | 1020.2 |
| 20260501213536 | 54 | 280 | 2.6 | 10.4 | 0.00 | 0.00 | 0.00 | 86 | 1020.3 |
| 20260501213049 | 54 | 284 | 3.5 | 10.4 | 0.00 | 0.00 | 0.00 | 86 | 1020.2 |
| 20260501212537 | 54 | 296 | 3.5 | 8.7 | 0.00 | 0.00 | 0.00 | 86 | 1020.3 |
| 20260501212037 | 54 | 288 | 5.2 | 10.4 | 0.00 | 0.00 | 0.00 | 86 | 1020.2 |
| 20260501211549 | 54 | 298 | 2.6 | 10.4 | 0.00 | 0.00 | 0.00 | 86 | 1020.3 |
| 20260501211037 | 55 | 289 | 4.3 | 10.4 | 0.00 | 0.00 | 0.00 | 86 | 1020.2 |